Location: Gollag?dem
(16.8053°N, 80.8024°E)
Time: 14:22:14
(UTC+00:00)

CZ-2C R/B - Pass Details

Date: 13 August 2020
Orbit: 705 x 907 km, 98.1° (Epoch: 24 September)

Event Time Altitude Azimuth Distance (km) Brightness Sun altitude
Rises 14:22:44 0° 181° (S) 3,214 6.0 -18.9°
Reaches altitude 10° 14:25:09 10° 187° (S) 2,262 5.3 -19.5°
Maximum altitude 14:29:51 44° 259° (W) 997 3.9 -20.5°
Drops below altitude 10° 14:34:25 10° 331° (NNW) 2,186 6.1 -21.5°
Sets 14:36:44 0° 338° (NNW) 3,096 6.8 -22.0°
